| time (UTC) | temp F | wind direction | speed knots | gust knots | rain 1hr in | rain 24hr in | rain mn in | humidity % | barometer mb |
| 20260504025721 | 40 | 331 | 1.7 | 1.7 | 0.00 | 0.00 | 0.00 | 81 | 1010.3 |
| 20260504025217 | 41 | 32 | 1.7 | 2.6 | 0.00 | 0.00 | 0.00 | 80 | 1010.2 |
| 20260504024714 | 42 | 6 | 2.6 | 2.6 | 0.00 | 0.00 | 0.00 | 79 | 1010.3 |
| 20260504024211 | 43 | 17 | 1.7 | 2.6 | 0.00 | 0.00 | 0.00 | 75 | 1010.2 |
| 20260504023708 | 44 | 235 | 0.9 | 2.6 | 0.00 | 0.00 | 0.00 | 72 | 1010.4 |
| 20260504023203 | 43 | 238 | 3.5 | 4.3 | 0.00 | 0.00 | 0.00 | 76 | 1010.5 |
| 20260504022700 | 42 | 226 | 2.6 | 2.6 | 0.00 | 0.00 | 0.00 | 81 | 1010.4 |
| 20260504022156 | 42 | 118 | 2.6 | 3.5 | 0.00 | 0.00 | 0.00 | 78 | 1010.5 |
| 20260504021654 | 44 | 119 | 4.3 | 4.3 | 0.00 | 0.00 | 0.00 | 74 | 1010.1 |
| 20260504021150 | 44 | 73 | 0.9 | 1.7 | 0.00 | 0.00 | 0.00 | 72 | 1010.0 |
| 20260504020648 | 44 | 26 | 0.9 | 1.7 | 0.00 | 0.00 | 0.00 | 71 | 1010.0 |
| 20260504020143 | 44 | 213 | 0.9 | 1.7 | 0.00 | 0.00 | 0.00 | 71 | 1009.9 |
| 20260504015641 | 44 | 66 | 0.0 | 0.9 | 0.00 | 0.00 | 0.00 | 72 | 1009.8 |
| 20260504015137 | 44 | 64 | 1.7 | 2.6 | 0.00 | 0.00 | 0.00 | 73 | 1009.8 |
| 20260504014632 | 44 | 53 | 0.9 | 1.7 | 0.00 | 0.00 | 0.00 | 69 | 1009.6 |
| 20260504014130 | 45 | 159 | 0.0 | 0.0 | 0.00 | 0.00 | 0.00 | 68 | 1009.8 |
| 20260504013627 | 45 | 165 | 0.0 | 0.9 | 0.00 | 0.00 | 0.00 | 69 | 1009.6 |
| 20260504013124 | 46 | 77 | 0.0 | 1.7 | 0.00 | 0.00 | 0.00 | 66 | 1009.7 |
| 20260504012621 | 47 | 91 | 0.9 | 1.7 | 0.00 | 0.00 | 0.00 | 64 | 1009.6 |
| 20260504012120 | 47 | 59 | 1.7 | 2.6 | 0.00 | 0.00 | 0.00 | 60 | 1009.5 |
| 20260504011616 | 48 | 33 | 1.7 | 2.6 | 0.00 | 0.00 | 0.00 | 58 | 1009.5 |
| 20260504011112 | 49 | 56 | 1.7 | 1.7 | 0.00 | 0.00 | 0.00 | 55 | 1009.5 |
| 20260504010608 | 49 | 225 | 1.7 | 2.6 | 0.00 | 0.00 | 0.00 | 57 | 1009.2 |
| 20260504010104 | 49 | 174 | 0.0 | 1.7 | 0.00 | 0.00 | 0.00 | 54 | 1009.4 |
| 20260504005601 | 49 | 354 | 0.0 | 0.9 | 0.00 | 0.00 | 0.00 | 52 | 1009.1 |
| 20260504005058 | 50 | 45 | 0.0 | 1.7 | 0.00 | 0.00 | 0.00 | 53 | 1009.1 |
| 20260504004556 | 51 | 11 | 0.0 | 1.7 | 0.00 | 0.00 | 0.00 | 50 | 1008.9 |
| 20260504004053 | 51 | 18 | 0.0 | 0.9 | 0.00 | 0.00 | 0.00 | 49 | 1009.2 |
| 20260504003549 | 53 | 79 | 1.7 | 1.7 | 0.00 | 0.00 | 0.00 | 47 | 1009.0 |
| 20260504003046 | 53 | 18 | 1.7 | 1.7 | 0.00 | 0.00 | 0.00 | 45 | 1008.9 |
| 20260504002542 | 54 | 2 | 1.7 | 2.6 | 0.00 | 0.00 | 0.00 | 44 | 1008.9 |
| 20260504002040 | 54 | 357 | 1.7 | 1.7 | 0.00 | 0.00 | 0.00 | 45 | 1008.9 |
| 20260504001538 | 55 | 53 | 1.7 | 2.6 | 0.00 | 0.00 | 0.00 | 42 | 1009.2 |
| 20260504001034 | 56 | 22 | 1.7 | 2.6 | 0.00 | 0.00 | 0.00 | 39 | 1008.8 |
| 20260504000531 | 57 | 39 | 0.0 | 1.7 | 0.00 | 0.00 | 0.00 | 36 | 1009.0 |
| 20260504000028 | 58 | 52 | 1.7 | 1.7 | 0.00 | 0.00 | 0.00 | 35 | 1009.0 |
| 20260503235527 | 58 | 161 | 0.9 | 1.7 | 0.00 | 0.00 | 0.00 | 33 | 1009.0 |
| 20260503235023 | 60 | 221 | 1.7 | 1.7 | 0.00 | 0.00 | 0.00 | 33 | 1009.0 |
| 20260503234521 | 61 | 156 | 1.7 | 1.7 | 0.00 | 0.00 | 0.00 | 32 | 1009.0 |
| 20260503234019 | 61 | 188 | 1.7 | 2.6 | 0.00 | 0.00 | 0.00 | 31 | 1008.9 |
| 20260503233515 | 61 | 203 | 1.7 | 3.5 | 0.00 | 0.00 | 0.00 | 30 | 1008.9 |
| 20260503233011 | 62 | 193 | 1.7 | 2.6 | 0.00 | 0.00 | 0.00 | 30 | 1008.8 |
| 20260503232508 | 62 | 188 | 2.6 | 3.5 | 0.00 | 0.00 | 0.00 | 31 | 1008.7 |
| 20260503232006 | 62 | 184 | 3.5 | 5.2 | 0.00 | 0.00 | 0.00 | 28 | 1008.9 |
| 20260503231503 | 62 | 228 | 4.3 | 5.2 | 0.00 | 0.00 | 0.00 | 30 | 1008.8 |
| 20260503231000 | 62 | 215 | 1.7 | 3.5 | 0.00 | 0.00 | 0.00 | 32 | 1008.7 |
| 20260503230456 | 62 | 211 | 5.2 | 6.1 | 0.00 | 0.00 | 0.00 | 28 | 1008.7 |
| 20260503225954 | 62 | 209 | 5.2 | 9.6 | 0.00 | 0.00 | 0.00 | 30 | 1008.7 |
| 20260503225450 | 62 | 212 | 7.8 | 8.7 | 0.00 | 0.00 | 0.00 | 29 | 1008.5 |
| 20260503224946 | 62 | 214 | 8.7 | 10.4 | 0.00 | 0.00 | 0.00 | 28 | 1008.7 |
| 20260503224443 | 62 | 228 | 6.1 | 7.8 | 0.00 | 0.00 | 0.00 | 28 | 1008.5 |
| 20260503223941 | 62 | 209 | 7.0 | 7.8 | 0.00 | 0.00 | 0.00 | 30 | 1008.6 |
| 20260503223439 | 62 | 196 | 7.8 | 11.3 | 0.00 | 0.00 | 0.00 | 29 | 1008.6 |
| 20260503222934 | 62 | 214 | 6.1 | 13.0 | 0.00 | 0.00 | 0.00 | 28 | 1008.6 |
| 20260503222433 | 63 | 169 | 4.3 | 5.2 | 0.00 | 0.00 | 0.00 | 32 | 1008.5 |
| 20260503221931 | 62 | 263 | 7.0 | 9.6 | 0.00 | 0.00 | 0.00 | 29 | 1008.7 |
| 20260503221429 | 63 | 251 | 6.1 | 9.6 | 0.00 | 0.00 | 0.00 | 29 | 1008.6 |
| 20260503220925 | 63 | 173 | 4.3 | 6.1 | 0.00 | 0.00 | 0.00 | 29 | 1008.6 |
| 20260503220421 | 62 | 212 | 9.6 | 11.3 | 0.00 | 0.00 | 0.00 | 28 | 1008.7 |
| 20260503215919 | 62 | 221 | 8.7 | 9.6 | 0.00 | 0.00 | 0.00 | 30 | 1008.6 |
| 20260503215416 | 63 | 168 | 5.2 | 8.7 | 0.00 | 0.00 | 0.00 | 27 | 1008.7 |
| 20260503214913 | 63 | 165 | 4.3 | 6.1 | 0.00 | 0.00 | 0.00 | 30 | 1008.7 |
| 20260503214410 | 63 | 242 | 7.0 | 8.7 | 0.00 | 0.00 | 0.00 | 26 | 1008.6 |
| 20260503213908 | 63 | 126 | 0.0 | 7.0 | 0.00 | 0.00 | 0.00 | 32 | 1008.6 |
| 20260503213406 | 62 | 215 | 4.3 | 10.4 | 0.00 | 0.00 | 0.00 | 30 | 1008.8 |
| 20260503212902 | 62 | 183 | 8.7 | 16.5 | 0.00 | 0.00 | 0.00 | 29 | 1008.7 |
| 20260503212400 | 62 | 165 | 8.7 | 12.2 | 0.00 | 0.00 | 0.00 | 29 | 1008.8 |
| 20260503211857 | 63 | 121 | 7.0 | 8.7 | 0.00 | 0.00 | 0.00 | 27 | 1009.1 |
| 20260503211354 | 62 | 138 | 6.1 | 7.8 | 0.00 | 0.00 | 0.00 | 31 | 1008.8 |
| 20260503210848 | 61 | 193 | 7.8 | 12.2 | 0.00 | 0.00 | 0.00 | 30 | 1008.8 |
| 20260503210346 | 62 | 210 | 5.2 | 10.4 | 0.00 | 0.00 | 0.00 | 32 | 1008.9 |
| 20260503205841 | 62 | 191 | 8.7 | 10.4 | 0.00 | 0.00 | 0.00 | 27 | 1009.1 |
| 20260503205338 | 62 | 195 | 5.2 | 12.2 | 0.00 | 0.00 | 0.00 | 29 | 1008.7 |
| 20260503204834 | 62 | 221 | 4.3 | 9.6 | 0.00 | 0.00 | 0.00 | 29 | 1008.9 |
| 20260503204332 | 62 | 206 | 7.8 | 7.8 | 0.00 | 0.00 | 0.00 | 30 | 1008.9 |
| 20260503203829 | 61 | 143 | 9.6 | 11.3 | 0.00 | 0.00 | 0.00 | 29 | 1009.1 |
| 20260503203326 | 62 | 175 | 7.8 | 13.9 | 0.00 | 0.00 | 0.00 | 30 | 1008.8 |
| 20260503202823 | 63 | 125 | 0.9 | 3.5 | 0.00 | 0.00 | 0.00 | 34 | 1008.9 |
| 20260503202321 | 62 | 200 | 6.1 | 7.0 | 0.00 | 0.00 | 0.00 | 31 | 1009.1 |
| 20260503201819 | 62 | 311 | 2.6 | 7.0 | 0.00 | 0.00 | 0.00 | 32 | 1009.2 |
| 20260503201316 | 62 | 263 | 1.7 | 7.8 | 0.00 | 0.00 | 0.00 | 37 | 1009.2 |
| 20260503200814 | 60 | 216 | 6.1 | 13.9 | 0.00 | 0.00 | 0.00 | 32 | 1009.4 |
| 20260503200309 | 60 | 180 | 7.8 | 18.2 | 0.00 | 0.00 | 0.00 | 34 | 1009.5 |
| 20260503195807 | 61 | 183 | 8.7 | 14.8 | 0.00 | 0.00 | 0.00 | 33 | 1009.4 |
| 20260503195304 | 61 | 199 | 12.2 | 15.6 | 0.00 | 0.00 | 0.00 | 31 | 1009.6 |
| 20260503194800 | 61 | 323 | 4.3 | 5.2 | 0.00 | 0.00 | 0.00 | 34 | 1009.6 |
| 20260503194256 | 60 | 150 | 5.2 | 5.2 | 0.00 | 0.00 | 0.00 | 33 | 1009.7 |
| 20260503193753 | 59 | 229 | 9.6 | 18.2 | 0.00 | 0.00 | 0.00 | 32 | 1010.0 |
| 20260503193249 | 61 | 167 | 7.8 | 7.8 | 0.00 | 0.00 | 0.00 | 33 | 1010.0 |
| 20260503192744 | 59 | 320 | 1.7 | 10.4 | 0.00 | 0.00 | 0.00 | 33 | 1010.0 |
| 20260503192240 | 58 | 242 | 1.7 | 11.3 | 0.00 | 0.00 | 0.00 | 32 | 1010.1 |
| 20260503191737 | 58 | 302 | 7.8 | 11.3 | 0.00 | 0.00 | 0.00 | 34 | 1010.3 |
| 20260503191234 | 57 | 195 | 5.2 | 13.9 | 0.00 | 0.00 | 0.00 | 33 | 1010.5 |
| 20260503190731 | 58 | 214 | 13.9 | 20.9 | 0.00 | 0.00 | 0.00 | 34 | 1010.6 |
| 20260503190227 | 59 | 220 | 7.8 | 20.9 | 0.00 | 0.00 | 0.00 | 39 | 1010.6 |
| 20260503185725 | 58 | 241 | 7.0 | 18.2 | 0.00 | 0.00 | 0.00 | 36 | 1010.6 |
| 20260503185220 | 58 | 214 | 9.6 | 13.9 | 0.00 | 0.00 | 0.00 | 38 | 1010.4 |
| 20260503184715 | 58 | 224 | 7.8 | 9.6 | 0.00 | 0.00 | 0.00 | 37 | 1010.6 |
| 20260503184211 | 58 | 157 | 7.8 | 10.4 | 0.00 | 0.00 | 0.00 | 34 | 1010.8 |
| 20260503183708 | 58 | 218 | 9.6 | 15.6 | 0.00 | 0.00 | 0.00 | 36 | 1010.8 |
| 20260503183205 | 58 | 155 | 7.0 | 11.3 | 0.00 | 0.00 | 0.00 | 38 | 1010.7 |
| 20260503182704 | 58 | 180 | 12.2 | 16.5 | 0.00 | 0.00 | 0.00 | 35 | 1010.7 |
| 20260503182202 | 57 | 222 | 1.7 | 12.2 | 0.00 | 0.00 | 0.00 | 35 | 1010.8 |
| 20260503181658 | 58 | 175 | 11.3 | 20.0 | 0.00 | 0.00 | 0.00 | 34 | 1010.8 |
| 20260503181155 | 56 | 157 | 8.7 | 10.4 | 0.00 | 0.00 | 0.00 | 36 | 1010.8 |
| 20260503180651 | 58 | 272 | 6.1 | 9.6 | 0.00 | 0.00 | 0.00 | 41 | 1010.8 |
| 20260503180150 | 57 | 213 | 2.6 | 16.5 | 0.00 | 0.00 | 0.00 | 35 | 1010.8 |
| 20260503175646 | 57 | 285 | 9.6 | 11.3 | 0.00 | 0.00 | 0.00 | 36 | 1010.8 |
| 20260503175143 | 56 | 256 | 10.4 | 17.4 | 0.00 | 0.00 | 0.00 | 35 | 1010.8 |
| 20260503174640 | 55 | 255 | 5.2 | 6.1 | 0.00 | 0.00 | 0.00 | 35 | 1010.8 |
| 20260503174137 | 57 | 269 | 10.4 | 11.3 | 0.00 | 0.00 | 0.00 | 34 | 1011.1 |
| 20260503173632 | 56 | 195 | 11.3 | 14.8 | 0.00 | 0.00 | 0.00 | 36 | 1011.3 |
| 20260503173129 | 56 | 232 | 7.8 | 20.0 | 0.00 | 0.00 | 0.00 | 39 | 1011.3 |
| 20260503172626 | 55 | 258 | 7.0 | 16.5 | 0.00 | 0.00 | 0.00 | 35 | 1011.2 |
| 20260503172124 | 56 | 219 | 12.2 | 14.8 | 0.00 | 0.00 | 0.00 | 37 | 1011.3 |
| 20260503171620 | 55 | 212 | 4.3 | 13.0 | 0.00 | 0.00 | 0.00 | 37 | 1011.5 |
| 20260503171117 | 57 | 221 | 9.6 | 11.3 | 0.00 | 0.00 | 0.00 | 41 | 1011.4 |
| 20260503170614 | 54 | 210 | 7.8 | 14.8 | 0.00 | 0.00 | 0.00 | 37 | 1011.2 |
| 20260503170111 | 53 | 214 | 13.0 | 15.6 | 0.00 | 0.00 | 0.00 | 38 | 1011.4 |
| 20260503151006 | 52 | 216 | 3.5 | 7.8 | 0.00 | 0.00 | 0.00 | 46 | 1012.1 |
| 20260503150502 | 52 | 318 | 1.7 | 10.4 | 0.00 | 0.00 | 0.00 | 41 | 1012.3 |
| 20260503131355 | 47 | 236 | 8.7 | 13.0 | 0.00 | 0.00 | 0.00 | 55 | 1012.4 |
| 20260503130853 | 46 | 244 | 11.3 | 19.1 | 0.00 | 0.00 | 0.00 | 54 | 1012.5 |
| 20260503130350 | 47 | 254 | 12.2 | 13.0 | 0.00 | 0.00 | 0.00 | 53 | 1012.6 |
| 20260503110744 | 42 | 57 | 0.9 | 1.7 | 0.00 | 0.00 | 0.00 | 73 | 1011.7 |
| 20260503110241 | 41 | 213 | 0.9 | 2.6 | 0.00 | 0.00 | 0.00 | 71 | 1011.4 |
| 20260503100207 | 40 | 192 | 2.6 | 3.5 | 0.00 | 0.00 | 0.00 | 74 | 1010.8 |
| 20260503090131 | 42 | 183 | 1.7 | 2.6 | 0.00 | 0.00 | 0.00 | 70 | 1010.3 |
| 20260503081602 | 42 | 237 | 2.6 | 3.5 | 0.00 | 0.00 | 0.00 | 68 | 1010.0 |
| 20260503081100 | 43 | 238 | 2.6 | 4.3 | 0.00 | 0.00 | 0.00 | 66 | 1010.0 |
| 20260503080555 | 43 | 279 | 1.7 | 4.3 | 0.00 | 0.00 | 0.00 | 66 | 1009.9 |
| 20260503072529 | 41 | 228 | 3.5 | 4.3 | 0.00 | 0.00 | 0.00 | 74 | 1009.8 |
| 20260503072026 | 41 | 239 | 2.6 | 5.2 | 0.00 | 0.00 | 0.00 | 73 | 1009.7 |
| 20260503071523 | 41 | 235 | 5.2 | 5.2 | 0.00 | 0.00 | 0.00 | 73 | 1009.6 |
| 20260503071020 | 40 | 239 | 5.2 | 7.0 | 0.00 | 0.00 | 0.00 | 75 | 1009.7 |
| 20260503070516 | 40 | 241 | 4.3 | 5.2 | 0.00 | 0.00 | 0.00 | 76 | 1009.5 |
| 20260503054934 | 44 | 260 | 1.7 | 5.2 | 0.00 | 0.00 | 0.00 | 64 | 1009.0 |
| 20260503054430 | 44 | 311 | 5.2 | 7.0 | 0.00 | 0.00 | 0.00 | 63 | 1009.4 |
| 20260503053928 | 44 | 5 | 6.1 | 7.0 | 0.00 | 0.00 | 0.00 | 63 | 1009.1 |
| 20260503053426 | 44 | 278 | 2.6 | 5.2 | 0.00 | 0.00 | 0.00 | 63 | 1009.2 |
| 20260503052922 | 45 | 255 | 3.5 | 7.8 | 0.00 | 0.00 | 0.00 | 62 | 1009.4 |
| 20260503052420 | 45 | 226 | 3.5 | 6.1 | 0.00 | 0.00 | 0.00 | 64 | 1009.2 |
| 20260503051916 | 45 | 305 | 9.6 | 10.4 | 0.00 | 0.00 | 0.00 | 61 | 1009.2 |
| 20260503051412 | 45 | 267 | 9.6 | 12.2 | 0.00 | 0.00 | 0.00 | 61 | 1009.1 |
| 20260503050909 | 45 | 244 | 6.1 | 6.1 | 0.00 | 0.00 | 0.00 | 61 | 1009.4 |
| 20260503050405 | 45 | 255 | 3.5 | 10.4 | 0.00 | 0.00 | 0.00 | 62 | 1009.4 |
| 20260503045903 | 45 | 274 | 7.0 | 15.6 | 0.00 | 0.00 | 0.00 | 60 | 1009.1 |
| 20260503045400 | 45 | 265 | 3.5 | 7.0 | 0.00 | 0.00 | 0.00 | 61 | 1009.4 |
| 20260503044856 | 45 | 260 | 2.6 | 6.1 | 0.00 | 0.00 | 0.00 | 61 | 1009.4 |
| 20260503044354 | 46 | 273 | 4.3 | 10.4 | 0.00 | 0.00 | 0.00 | 60 | 1009.2 |
| 20260503043851 | 46 | 331 | 1.7 | 5.2 | 0.00 | 0.00 | 0.00 | 60 | 1009.6 |
| 20260503043348 | 46 | 300 | 6.1 | 8.7 | 0.00 | 0.00 | 0.00 | 59 | 1009.5 |
| 20260503042844 | 46 | 284 | 6.1 | 8.7 | 0.00 | 0.00 | 0.00 | 58 | 1009.4 |
| 20260503042341 | 46 | 260 | 5.2 | 7.8 | 0.00 | 0.00 | 0.00 | 58 | 1009.4 |
| 20260503041836 | 46 | 265 | 4.3 | 7.0 | 0.00 | 0.00 | 0.00 | 58 | 1009.4 |
| 20260503041334 | 46 | 281 | 3.5 | 6.1 | 0.00 | 0.00 | 0.00 | 57 | 1009.4 |
| 20260503040832 | 47 | 288 | 3.5 | 6.1 | 0.00 | 0.00 | 0.00 | 57 | 1009.1 |
| 20260503040329 | 47 | 273 | 8.7 | 9.6 | 0.00 | 0.00 | 0.00 | 57 | 1009.2 |
| 20260503035826 | 47 | 300 | 7.0 | 8.7 | 0.00 | 0.00 | 0.00 | 58 | 1009.1 |
| 20260503035323 | 47 | 256 | 5.2 | 7.0 | 0.00 | 0.00 | 0.00 | 57 | 1009.0 |
| 20260503034820 | 47 | 263 | 4.3 | 5.2 | 0.00 | 0.00 | 0.00 | 57 | 1009.2 |
| 20260503034317 | 47 | 285 | 5.2 | 11.3 | 0.00 | 0.00 | 0.00 | 57 | 1009.1 |
| 20260503033815 | 47 | 280 | 5.2 | 7.8 | 0.00 | 0.00 | 0.00 | 57 | 1009.0 |
| 20260503033312 | 47 | 253 | 7.8 | 7.8 | 0.00 | 0.00 | 0.00 | 57 | 1009.0 |
| 20260503032810 | 47 | 285 | 7.0 | 13.9 | 0.00 | 0.00 | 0.00 | 56 | 1009.0 |
| 20260503032309 | 48 | 261 | 7.8 | 11.3 | 0.00 | 0.00 | 0.00 | 56 | 1008.9 |
| 20260503031805 | 48 | 314 | 5.2 | 13.0 | 0.00 | 0.00 | 0.00 | 56 | 1008.7 |
| 20260503031303 | 48 | 263 | 3.5 | 8.7 | 0.00 | 0.00 | 0.00 | 57 | 1008.9 |
| 20260503030759 | 48 | 264 | 3.5 | 7.0 | 0.00 | 0.00 | 0.00 | 56 | 1009.0 |
| 20260503030256 | 48 | 290 | 5.2 | 6.1 | 0.00 | 0.00 | 0.00 | 56 | 1009.0 |